| time (UTC) | temp F | wind direction | speed knots | gust knots | rain 1hr in | rain 24hr in | rain mn in | humidity % | barometer mb |
| 20260906072508 | 68 | 140 | 0.0 | 0.0 | 0.00 | 0.05 | 0.00 | 94 | 1013.5 |
| 20260906072012 | 68 | 140 | 0.0 | 0.0 | 0.00 | 0.05 | 0.00 | 94 | 1013.5 |
| 20260906071519 | 69 | 140 | 0.0 | 0.0 | 0.00 | 0.05 | 0.00 | 94 | 1013.4 |
| 20260906071010 | 69 | 140 | 0.0 | 1.7 | 0.00 | 0.05 | 0.00 | 94 | 1013.5 |
| 20260906070514 | 69 | 140 | 0.0 | 1.7 | 0.00 | 0.05 | 0.00 | 94 | 1013.4 |
| 20260906070034 | 69 | 95 | 0.0 | 1.7 | 0.00 | 0.05 | 0.00 | 93 | 1013.4 |
| 20260906065515 | 69 | 95 | 0.0 | 1.7 | 0.00 | 0.05 | 0.00 | 93 | 1013.6 |
| 20260906065013 | 69 | 149 | 0.0 | 1.7 | 0.00 | 0.05 | 0.00 | 94 | 1013.5 |
| 20260906064532 | 69 | 149 | 0.0 | 0.0 | 0.00 | 0.05 | 0.00 | 94 | 1013.3 |
| 20260906064017 | 69 | 149 | 0.0 | 1.7 | 0.00 | 0.05 | 0.00 | 93 | 1013.4 |
| 20260906063515 | 69 | 149 | 0.0 | 1.7 | 0.00 | 0.05 | 0.00 | 94 | 1013.5 |
| 20260906063043 | 69 | 141 | 0.0 | 1.7 | 0.00 | 0.05 | 0.00 | 94 | 1013.5 |
| 20260906062520 | 69 | 94 | 0.0 | 1.7 | 0.00 | 0.05 | 0.00 | 94 | 1013.7 |
| 20260906062008 | 68 | 94 | 0.0 | 0.0 | 0.00 | 0.05 | 0.00 | 93 | 1013.7 |
| 20260906061516 | 69 | 94 | 0.0 | 1.7 | 0.00 | 0.05 | 0.00 | 94 | 1013.7 |
| 20260906061011 | 69 | 94 | 0.0 | 1.7 | 0.00 | 0.05 | 0.00 | 94 | 1013.8 |
| 20260906060511 | 69 | 94 | 0.0 | 1.7 | 0.00 | 0.05 | 0.00 | 94 | 1013.9 |
| 20260906060022 | 69 | 134 | 0.0 | 0.9 | 0.00 | 0.05 | 0.00 | 94 | 1014.0 |
| 20260906055514 | 69 | 55 | 0.9 | 0.9 | 0.00 | 0.05 | 0.00 | 94 | 1014.1 |
| 20260906055012 | 69 | 55 | 0.0 | 1.7 | 0.00 | 0.05 | 0.00 | 93 | 1014.1 |
| 20260906054530 | 69 | 55 | 0.9 | 1.7 | 0.00 | 0.05 | 0.00 | 94 | 1014.1 |
| 20260906054014 | 69 | 55 | 0.9 | 1.7 | 0.00 | 0.05 | 0.00 | 94 | 1014.1 |
| 20260906053514 | 69 | 55 | 0.0 | 1.7 | 0.00 | 0.05 | 0.00 | 93 | 1014.0 |
| 20260906053030 | 69 | 55 | 0.0 | 1.7 | 0.00 | 0.05 | 0.00 | 93 | 1014.1 |
| 20260906052519 | 69 | 55 | 0.0 | 1.7 | 0.00 | 0.05 | 0.00 | 93 | 1014.2 |
| 20260906052018 | 69 | 55 | 0.0 | 0.9 | 0.00 | 0.05 | 0.00 | 93 | 1014.2 |
| 20260906051550 | 69 | 55 | 0.0 | 1.7 | 0.00 | 0.05 | 0.00 | 92 | 1014.3 |
| 20260906051009 | 69 | 55 | 0.0 | 1.7 | 0.00 | 0.05 | 0.00 | 92 | 1014.3 |
| 20260906050510 | 69 | 55 | 0.0 | 0.0 | 0.00 | 0.05 | 0.00 | 92 | 1014.4 |
| 20260906050019 | 69 | 55 | 0.0 | 0.0 | 0.00 | 0.05 | 0.00 | 93 | 1014.5 |
| 20260906045512 | 69 | 55 | 0.0 | 0.9 | 0.00 | 0.05 | 0.00 | 93 | 1014.5 |
| 20260906045014 | 69 | 55 | 0.0 | 1.7 | 0.00 | 0.05 | 0.00 | 92 | 1014.5 |
| 20260906044523 | 70 | 67 | 0.9 | 1.7 | 0.00 | 0.05 | 0.00 | 92 | 1014.3 |
| 20260906044018 | 70 | 67 | 0.0 | 1.7 | 0.00 | 0.05 | 0.00 | 92 | 1014.2 |
| 20260906043515 | 70 | 67 | 0.9 | 1.7 | 0.00 | 0.05 | 0.00 | 92 | 1014.1 |
| 20260906043028 | 70 | 61 | 0.9 | 1.7 | 0.00 | 0.05 | 0.00 | 92 | 1014.1 |
| 20260906042516 | 70 | 61 | 0.9 | 1.7 | 0.00 | 0.05 | 0.00 | 92 | 1014.0 |
| 20260906042016 | 70 | 79 | 0.9 | 1.7 | 0.00 | 0.05 | 0.00 | 92 | 1014.1 |
| 20260906041531 | 70 | 82 | 0.0 | 2.6 | 0.00 | 0.05 | 0.00 | 92 | 1014.1 |
| 20260906041020 | 70 | 82 | 0.9 | 2.6 | 0.00 | 0.05 | 0.00 | 92 | 1014.0 |
| 20260906040508 | 70 | 66 | 0.9 | 2.6 | 0.00 | 0.05 | 0.00 | 92 | 1014.0 |
| 20260906040030 | 70 | 85 | 0.0 | 1.7 | 0.00 | 0.05 | 0.00 | 92 | 1014.0 |
| 20260906035510 | 70 | 85 | 0.0 | 0.9 | 0.00 | 0.05 | 0.05 | 92 | 1014.1 |
| 20260906035014 | 70 | 85 | 0.0 | 0.9 | 0.00 | 0.05 | 0.05 | 93 | 1014.1 |
| 20260906034529 | 70 | 85 | 0.0 | 1.7 | 0.00 | 0.05 | 0.05 | 93 | 1014.1 |
| 20260906034019 | 70 | 74 | 0.9 | 1.7 | 0.00 | 0.05 | 0.05 | 93 | 1014.1 |
| 20260906033512 | 70 | 74 | 0.9 | 1.7 | 0.00 | 0.05 | 0.05 | 93 | 1014.2 |
| 20260906033028 | 70 | 74 | 0.9 | 1.7 | 0.00 | 0.05 | 0.05 | 93 | 1014.3 |
| 20260906032514 | 70 | 74 | 0.0 | 0.9 | 0.00 | 0.05 | 0.05 | 93 | 1014.3 |
| 20260906032014 | 70 | 74 | 0.0 | 0.9 | 0.00 | 0.05 | 0.05 | 92 | 1014.4 |
| 20260906031538 | 70 | 74 | 0.0 | 1.7 | 0.00 | 0.05 | 0.05 | 92 | 1014.5 |
| 20260906031019 | 70 | 74 | 0.0 | 1.7 | 0.00 | 0.05 | 0.05 | 92 | 1014.5 |
| 20260906030519 | 70 | 74 | 0.0 | 1.7 | 0.00 | 0.05 | 0.05 | 92 | 1014.5 |
| 20260906030012 | 71 | 74 | 0.9 | 1.7 | 0.00 | 0.05 | 0.05 | 92 | 1014.4 |
| 20260906025509 | 71 | 79 | 0.9 | 1.7 | 0.00 | 0.05 | 0.05 | 92 | 1014.3 |
| 20260906025010 | 71 | 81 | 0.0 | 0.0 | 0.00 | 0.05 | 0.05 | 92 | 1014.4 |
| 20260906024511 | 71 | 81 | 0.0 | 0.0 | 0.00 | 0.05 | 0.05 | 91 | 1014.4 |
| 20260906024007 | 71 | 81 | 0.0 | 0.0 | 0.00 | 0.05 | 0.05 | 92 | 1014.6 |
| 20260906023508 | 71 | 81 | 0.0 | 0.0 | 0.00 | 0.05 | 0.05 | 91 | 1014.5 |
| 20260906023014 | 71 | 81 | 0.0 | 0.0 | 0.00 | 0.05 | 0.05 | 91 | 1014.5 |
| 20260906022510 | 71 | 81 | 0.0 | 0.0 | 0.00 | 0.05 | 0.05 | 91 | 1014.4 |
| 20260906022008 | 71 | 81 | 0.0 | 0.0 | 0.00 | 0.05 | 0.05 | 91 | 1014.3 |
| 20260906021515 | 71 | 81 | 0.0 | 0.0 | 0.00 | 0.05 | 0.05 | 91 | 1014.3 |
| 20260906021004 | 71 | 81 | 0.0 | 0.9 | 0.00 | 0.05 | 0.05 | 91 | 1014.4 |
| 20260906020507 | 72 | 81 | 0.0 | 1.7 | 0.00 | 0.05 | 0.05 | 90 | 1014.4 |
| 20260906020017 | 72 | 81 | 0.9 | 1.7 | 0.00 | 0.05 | 0.05 | 90 | 1014.3 |
| 20260906015508 | 72 | 65 | 0.0 | 1.7 | 0.00 | 0.05 | 0.05 | 90 | 1014.4 |
| 20260906015009 | 72 | 65 | 0.9 | 1.7 | 0.00 | 0.05 | 0.05 | 90 | 1014.2 |
| 20260906014525 | 72 | 87 | 0.9 | 0.9 | 0.00 | 0.05 | 0.05 | 90 | 1014.2 |
| 20260906014009 | 72 | 87 | 0.9 | 0.9 | 0.00 | 0.05 | 0.05 | 89 | 1014.2 |
| 20260906013508 | 73 | 87 | 0.9 | 0.9 | 0.00 | 0.05 | 0.05 | 89 | 1014.2 |
| 20260906013015 | 73 | 121 | 0.0 | 0.0 | 0.00 | 0.05 | 0.05 | 87 | 1014.2 |
| 20260906012508 | 73 | 121 | 0.0 | 0.0 | 0.00 | 0.05 | 0.05 | 86 | 1014.2 |
| 20260906012008 | 73 | 121 | 0.0 | 0.0 | 0.00 | 0.05 | 0.05 | 88 | 1014.2 |
| 20260906011512 | 73 | 121 | 0.0 | 0.0 | 0.00 | 0.05 | 0.05 | 89 | 1014.2 |
| 20260906011012 | 73 | 121 | 0.0 | 0.0 | 0.00 | 0.05 | 0.05 | 87 | 1014.1 |
| 20260906010511 | 73 | 121 | 0.0 | 0.0 | 0.00 | 0.05 | 0.05 | 87 | 1014.0 |
| 20260906010011 | 73 | 121 | 0.0 | 0.0 | 0.00 | 0.05 | 0.05 | 86 | 1014.0 |
| 20260906005506 | 74 | 121 | 0.0 | 0.0 | 0.00 | 0.05 | 0.05 | 85 | 1013.8 |
| 20260906005008 | 74 | 121 | 0.0 | 0.0 | 0.00 | 0.05 | 0.05 | 85 | 1013.8 |
| 20260906004516 | 74 | 121 | 0.0 | 0.0 | 0.00 | 0.05 | 0.05 | 85 | 1013.7 |
| 20260906004013 | 74 | 121 | 0.0 | 0.0 | 0.00 | 0.05 | 0.05 | 86 | 1013.7 |
| 20260906003510 | 74 | 121 | 0.0 | 0.0 | 0.00 | 0.05 | 0.05 | 85 | 1013.6 |
| 20260906003014 | 74 | 121 | 0.0 | 0.0 | 0.00 | 0.05 | 0.05 | 85 | 1013.4 |
| 20260906002507 | 75 | 121 | 0.0 | 0.0 | 0.00 | 0.05 | 0.05 | 84 | 1013.4 |
| 20260906002012 | 75 | 121 | 0.0 | 0.0 | 0.00 | 0.05 | 0.05 | 84 | 1013.4 |
| 20260906001518 | 75 | 121 | 0.0 | 0.0 | 0.00 | 0.05 | 0.05 | 83 | 1013.5 |
| 20260906001011 | 76 | 121 | 0.0 | 0.0 | 0.00 | 0.05 | 0.05 | 82 | 1013.5 |
| 20260906000511 | 76 | 121 | 0.0 | 1.7 | 0.00 | 0.05 | 0.05 | 81 | 1013.5 |
| 20260906000019 | 77 | 121 | 0.0 | 1.7 | 0.00 | 0.05 | 0.05 | 80 | 1013.4 |
| 20260905235507 | 77 | 121 | 0.0 | 0.9 | 0.00 | 0.05 | 0.05 | 80 | 1013.5 |
| 20260905235006 | 77 | 121 | 0.9 | 1.7 | 0.00 | 0.05 | 0.05 | 78 | 1013.4 |
| 20260905234515 | 78 | 116 | 0.0 | 1.7 | 0.00 | 0.05 | 0.05 | 78 | 1013.3 |
| 20260905234008 | 78 | 9 | 0.0 | 1.7 | 0.00 | 0.05 | 0.05 | 77 | 1013.4 |
| 20260905233512 | 79 | 11 | 0.0 | 0.0 | 0.00 | 0.05 | 0.05 | 75 | 1013.3 |
| 20260905233018 | 79 | 360 | 0.0 | 1.7 | 0.00 | 0.05 | 0.05 | 75 | 1013.1 |
| 20260905232512 | 80 | 5 | 0.0 | 1.7 | 0.00 | 0.05 | 0.05 | 74 | 1013.3 |
| 20260905232012 | 81 | 217 | 0.0 | 1.7 | 0.00 | 0.05 | 0.05 | 72 | 1013.3 |
| 20260905231523 | 81 | 267 | 0.9 | 1.7 | 0.00 | 0.05 | 0.05 | 70 | 1013.3 |
| 20260905231010 | 81 | 213 | 0.0 | 1.7 | 0.00 | 0.05 | 0.05 | 69 | 1013.2 |
| 20260905230509 | 82 | 304 | 0.0 | 2.6 | 0.00 | 0.05 | 0.05 | 67 | 1013.3 |
| 20260905230021 | 82 | 333 | 0.9 | 2.6 | 0.00 | 0.05 | 0.05 | 67 | 1013.4 |
| 20260905225511 | 82 | 297 | 0.0 | 1.7 | 0.00 | 0.05 | 0.05 | 67 | 1013.5 |
| 20260905225012 | 82 | 252 | 0.9 | 1.7 | 0.00 | 0.05 | 0.05 | 66 | 1013.6 |
| 20260905224511 | 82 | 9 | 0.0 | 1.7 | 0.00 | 0.05 | 0.05 | 65 | 1013.5 |
| 20260905224008 | 83 | 271 | 0.9 | 3.5 | 0.00 | 0.05 | 0.05 | 64 | 1013.6 |
| 20260905223508 | 83 | 321 | 1.7 | 3.5 | 0.00 | 0.05 | 0.05 | 66 | 1013.7 |
| 20260905223016 | 83 | 263 | 1.7 | 5.2 | 0.00 | 0.05 | 0.05 | 65 | 1013.7 |
| 20260905222512 | 83 | 270 | 0.9 | 5.2 | 0.00 | 0.05 | 0.05 | 65 | 1013.8 |
| 20260905222015 | 83 | 306 | 1.7 | 7.0 | 0.00 | 0.05 | 0.05 | 65 | 1013.8 |
| 20260905221518 | 83 | 279 | 1.7 | 7.0 | 0.00 | 0.05 | 0.05 | 65 | 1013.7 |
| 20260905221012 | 83 | 271 | 0.9 | 7.0 | 0.00 | 0.05 | 0.05 | 66 | 1013.7 |
| 20260905220513 | 83 | 344 | 1.7 | 7.0 | 0.00 | 0.05 | 0.05 | 65 | 1013.7 |
| 20260905220017 | 83 | 311 | 2.6 | 4.3 | 0.00 | 0.05 | 0.05 | 66 | 1013.6 |
| 20260905215511 | 83 | 224 | 2.6 | 4.3 | 0.00 | 0.05 | 0.05 | 65 | 1013.7 |
| 20260905215013 | 84 | 286 | 1.7 | 3.5 | 0.00 | 0.05 | 0.05 | 65 | 1013.7 |
| 20260905214526 | 83 | 289 | 1.7 | 3.5 | 0.00 | 0.05 | 0.05 | 64 | 1013.7 |
| 20260905214014 | 83 | 245 | 1.7 | 4.3 | 0.00 | 0.05 | 0.05 | 64 | 1013.7 |
| 20260905213512 | 83 | 225 | 1.7 | 6.1 | 0.00 | 0.05 | 0.05 | 65 | 1013.5 |
| 20260905213018 | 83 | 292 | 1.7 | 7.0 | 0.00 | 0.05 | 0.05 | 65 | 1013.5 |
| 20260905212509 | 83 | 221 | 5.2 | 7.0 | 0.00 | 0.05 | 0.05 | 65 | 1013.4 |
| 20260905212012 | 83 | 256 | 1.7 | 5.2 | 0.00 | 0.05 | 0.05 | 65 | 1013.4 |
| 20260905211519 | 83 | 201 | 1.7 | 7.8 | 0.00 | 0.05 | 0.05 | 67 | 1013.5 |
| 20260905211014 | 83 | 214 | 1.7 | 7.8 | 0.00 | 0.05 | 0.05 | 67 | 1013.6 |
| 20260905210514 | 82 | 239 | 3.5 | 7.8 | 0.00 | 0.05 | 0.05 | 67 | 1013.6 |
| 20260905210031 | 82 | 273 | 2.6 | 5.2 | 0.00 | 0.05 | 0.05 | 67 | 1013.7 |
| 20260905205514 | 82 | 257 | 0.0 | 5.2 | 0.00 | 0.05 | 0.05 | 70 | 1013.6 |
| 20260905205015 | 83 | 275 | 2.6 | 7.0 | 0.00 | 0.05 | 0.05 | 69 | 1013.5 |
| 20260905204531 | 83 | 219 | 2.6 | 7.0 | 0.00 | 0.05 | 0.05 | 68 | 1013.5 |
| 20260905204011 | 83 | 238 | 2.6 | 4.3 | 0.00 | 0.05 | 0.05 | 67 | 1013.6 |
| 20260905203511 | 83 | 287 | 1.7 | 3.5 | 0.00 | 0.05 | 0.05 | 66 | 1013.6 |
| 20260905203020 | 83 | 5 | 0.9 | 6.1 | 0.00 | 0.05 | 0.05 | 67 | 1013.7 |
| 20260905202511 | 83 | 315 | 1.7 | 6.1 | 0.00 | 0.05 | 0.05 | 66 | 1013.7 |
| 20260905202010 | 82 | 236 | 0.9 | 4.3 | 0.00 | 0.05 | 0.05 | 68 | 1013.8 |
| 20260905201519 | 82 | 242 | 1.7 | 3.5 | 0.00 | 0.05 | 0.05 | 68 | 1013.9 |
| 20260905201012 | 81 | 204 | 0.9 | 5.2 | 0.00 | 0.05 | 0.05 | 67 | 1013.9 |
| 20260905200514 | 82 | 226 | 1.7 | 7.0 | 0.00 | 0.05 | 0.05 | 66 | 1013.8 |
| 20260905200025 | 82 | 155 | 0.9 | 7.0 | 0.00 | 0.05 | 0.05 | 71 | 1013.8 |
| 20260905195511 | 82 | 272 | 1.7 | 5.2 | 0.00 | 0.05 | 0.05 | 68 | 1013.7 |
| 20260905195011 | 81 | 280 | 0.9 | 5.2 | 0.00 | 0.05 | 0.05 | 69 | 1013.9 |
| 20260905194521 | 80 | 158 | 0.9 | 5.2 | 0.00 | 0.05 | 0.05 | 69 | 1014.1 |
| 20260905194014 | 81 | 222 | 1.7 | 5.2 | 0.00 | 0.05 | 0.05 | 69 | 1014.2 |
| 20260905193512 | 81 | 183 | 0.9 | 3.5 | 0.00 | 0.05 | 0.05 | 69 | 1014.2 |
| 20260905193023 | 80 | 249 | 1.7 | 3.5 | 0.00 | 0.05 | 0.05 | 74 | 1014.4 |
| 20260905192512 | 79 | 230 | 1.7 | 3.5 | 0.00 | 0.05 | 0.05 | 72 | 1014.4 |
| 20260905192007 | 79 | 360 | 1.7 | 4.3 | 0.00 | 0.05 | 0.05 | 73 | 1014.5 |
| 20260905191522 | 79 | 190 | 0.9 | 4.3 | 0.00 | 0.05 | 0.05 | 73 | 1014.4 |
| 20260905191012 | 79 | 151 | 0.9 | 2.6 | 0.00 | 0.05 | 0.05 | 72 | 1014.6 |
| 20260905190512 | 79 | 242 | 0.9 | 2.6 | 0.00 | 0.05 | 0.05 | 71 | 1014.6 |
| 20260905190024 | 79 | 54 | 0.9 | 2.6 | 0.00 | 0.05 | 0.05 | 75 | 1014.7 |
| 20260905185517 | 77 | 58 | 1.7 | 4.3 | 0.00 | 0.05 | 0.05 | 74 | 1014.8 |
| 20260905185019 | 78 | 109 | 0.0 | 4.3 | 0.00 | 0.05 | 0.05 | 74 | 1014.9 |
| 20260905184524 | 78 | 159 | 1.7 | 3.5 | 0.00 | 0.05 | 0.05 | 72 | 1015.1 |
| 20260905184021 | 77 | 44 | 0.9 | 1.7 | 0.00 | 0.05 | 0.05 | 82 | 1015.2 |
| 20260905183515 | 76 | 74 | 0.0 | 1.7 | 0.00 | 0.05 | 0.05 | 80 | 1015.3 |
| 20260905183023 | 76 | 38 | 0.9 | 1.7 | 0.00 | 0.05 | 0.05 | 84 | 1015.4 |
| 20260905182512 | 74 | 5 | 0.0 | 1.7 | 0.00 | 0.05 | 0.05 | 87 | 1015.5 |
| 20260905182012 | 73 | 92 | 0.0 | 1.7 | 0.00 | 0.05 | 0.05 | 87 | 1015.6 |
| 20260905181528 | 72 | 66 | 0.9 | 1.7 | 0.00 | 0.05 | 0.05 | 88 | 1015.8 |
| 20260905181009 | 72 | 65 | 0.9 | 1.7 | 0.00 | 0.05 | 0.05 | 1015.9 | |
| 20260905180512 | 71 | 65 | 0.0 | 1.7 | 0.00 | 0.05 | 0.05 | 1016.1 | |
| 20260905180015 | 71 | 65 | 0.0 | 1.7 | 0.00 | 0.05 | 0.05 | 1016.3 | |
| 20260905175509 | 71 | 65 | 0.0 | 0.9 | 0.00 | 0.05 | 0.05 | 91 | 1016.6 |
| 20260905175008 | 71 | 65 | 0.0 | 1.7 | 0.00 | 0.05 | 0.05 | 91 | 1016.7 |
| 20260905174520 | 70 | 65 | 0.0 | 1.7 | 0.00 | 0.05 | 0.05 | 91 | 1016.8 |
| 20260905174011 | 70 | 65 | 0.0 | 1.7 | 0.00 | 0.05 | 0.05 | 91 | 1017.1 |
| 20260905173511 | 70 | 325 | 0.0 | 1.7 | 0.01 | 0.05 | 0.05 | 91 | 1017.3 |
| 20260905173012 | 70 | 325 | 0.0 | 1.7 | 0.01 | 0.05 | 0.05 | 91 | 1017.4 |
| 20260905172508 | 70 | 325 | 0.0 | 3.5 | 0.03 | 0.05 | 0.05 | 90 | 1017.3 |
| 20260905172008 | 70 | 38 | 0.0 | 3.5 | 0.05 | 0.05 | 0.05 | 90 | 1017.2 |
| 20260905171524 | 70 | 145 | 0.9 | 4.3 | 0.05 | 0.05 | 0.05 | 89 | 1017.3 |
| 20260905171008 | 70 | 190 | 0.9 | 4.3 | 0.05 | 0.05 | 0.05 | 89 | 1017.3 |
| 20260905170508 | 70 | 153 | 1.7 | 5.2 | 0.05 | 0.05 | 0.05 | 90 | 1017.2 |
| 20260905170019 | 70 | 175 | 3.5 | 5.2 | 0.05 | 0.05 | 0.05 | 90 | 1017.5 |
| 20260905165509 | 69 | 173 | 0.0 | 4.3 | 0.05 | 0.05 | 0.05 | 89 | 1017.4 |
| 20260905165015 | 70 | 67 | 0.9 | 4.3 | 0.05 | 0.05 | 0.05 | 89 | 1017.4 |
| 20260905164516 | 70 | 179 | 2.6 | 3.5 | 0.05 | 0.05 | 0.05 | 88 | 1017.5 |
| 20260905164009 | 70 | 296 | 1.7 | 4.3 | 0.05 | 0.05 | 0.05 | 86 | 1017.6 |
| 20260905163508 | 70 | 47 | 2.6 | 13.9 | 0.04 | 0.04 | 0.04 | 83 | 1017.5 |
| 20260905163021 | 72 | 336 | 3.5 | 13.9 | 0.04 | 0.04 | 0.04 | 81 | 1017.8 |
| 20260905162512 | 74 | 39 | 9.6 | 13.0 | 0.02 | 0.02 | 0.02 | 78 | 1017.3 |
| 20260905162007 | 76 | 38 | 5.2 | 18.2 | 0.00 | 0.00 | 0.00 | 75 | 1017.0 |
| 20260905161512 | 78 | 88 | 3.5 | 19.1 | 0.00 | 0.00 | 0.00 | 71 | 1017.2 |
| 20260905161009 | 80 | 40 | 10.4 | 19.1 | 0.00 | 0.00 | 0.00 | 68 | 1017.3 |
| 20260905160511 | 82 | 5 | 2.6 | 5.2 | 0.00 | 0.00 | 0.00 | 73 | 1016.5 |
| 20260905160016 | 82 | 18 | 0.9 | 1.7 | 0.00 | 0.00 | 0.00 | 75 | 1016.4 |
| 20260905155512 | 83 | 268 | 0.0 | 1.7 | 0.00 | 0.00 | 0.00 | 74 | 1016.3 |
| 20260905155009 | 83 | 286 | 0.0 | 1.7 | 0.00 | 0.00 | 0.00 | 71 | 1016.3 |
| 20260905154518 | 83 | 329 | 0.0 | 1.7 | 0.00 | 0.00 | 0.00 | 71 | 1016.4 |
| 20260905154012 | 84 | 304 | 0.0 | 1.7 | 0.00 | 0.00 | 0.00 | 69 | 1016.4 |
| 20260905153511 | 84 | 350 | 0.0 | 2.6 | 0.00 | 0.00 | 0.00 | 70 | 1016.6 |
| 20260905153016 | 84 | 333 | 1.7 | 3.5 | 0.00 | 0.00 | 0.00 | 67 | 1016.7 |
| 20260905152510 | 84 | 352 | 0.9 | 3.5 | 0.00 | 0.00 | 0.00 | 67 | 1016.6 |
| 20260905152011 | 84 | 311 | 1.7 | 3.5 | 0.00 | 0.00 | 0.00 | 68 | 1016.5 |
| 20260905151518 | 84 | 249 | 0.9 | 5.2 | 0.00 | 0.00 | 0.00 | 68 | 1016.4 |
| 20260905151009 | 84 | 300 | 2.6 | 5.2 | 0.00 | 0.00 | 0.00 | 68 | 1016.4 |
| 20260905150506 | 84 | 229 | 1.7 | 5.2 | 0.00 | 0.00 | 0.00 | 66 | 1016.4 |
| 20260905150021 | 84 | 279 | 1.7 | 5.2 | 0.00 | 0.00 | 0.00 | 67 | 1016.3 |
| 20260905145509 | 84 | 285 | 0.9 | 4.3 | 0.00 | 0.00 | 0.00 | 68 | 1016.1 |
| 20260905145011 | 84 | 219 | 2.6 | 4.3 | 0.00 | 0.00 | 0.00 | 69 | 1016.1 |
| 20260905144518 | 84 | 221 | 1.7 | 5.2 | 0.00 | 0.00 | 0.00 | 69 | 1016.0 |
| 20260905144014 | 83 | 236 | 0.9 | 5.2 | 0.00 | 0.00 | 0.00 | 72 | 1016.0 |
| 20260905143510 | 83 | 232 | 1.7 | 5.2 | 0.00 | 0.00 | 0.00 | 71 | 1016.0 |
| 20260905143021 | 83 | 132 | 0.0 | 2.6 | 0.00 | 0.00 | 0.00 | 74 | 1016.1 |
| 20260905142512 | 83 | 230 | 1.7 | 3.5 | 0.00 | 0.00 | 0.00 | 72 | 1016.2 |
| 20260905142018 | 82 | 207 | 0.9 | 5.2 | 0.00 | 0.00 | 0.00 | 71 | 1016.2 |
| 20260905141518 | 82 | 279 | 0.9 | 5.2 | 0.00 | 0.00 | 0.00 | 72 | 1016.2 |
| 20260905141010 | 82 | 219 | 1.7 | 3.5 | 0.00 | 0.00 | 0.00 | 72 | 1016.3 |
| 20260905140512 | 82 | 196 | 0.0 | 5.2 | 0.00 | 0.00 | 0.00 | 74 | 1016.3 |
| 20260905140016 | 81 | 211 | 1.7 | 5.2 | 0.00 | 0.00 | 0.00 | 76 | 1016.3 |
| 20260905135509 | 81 | 209 | 2.6 | 4.3 | 0.00 | 0.00 | 0.00 | 73 | 1016.2 |
| 20260905135014 | 81 | 315 | 0.0 | 3.5 | 0.00 | 0.00 | 0.00 | 75 | 1016.1 |
| 20260905134524 | 80 | 236 | 1.7 | 4.3 | 0.00 | 0.00 | 0.00 | 74 | 1016.2 |
| 20260905134012 | 80 | 132 | 0.9 | 4.3 | 0.00 | 0.00 | 0.00 | 77 | 1016.2 |
| 20260905133511 | 78 | 57 | 0.9 | 1.7 | 0.00 | 0.00 | 0.00 | 81 | 1016.2 |
| 20260905133020 | 78 | 247 | 0.9 | 1.7 | 0.00 | 0.00 | 0.00 | 81 | 1016.3 |
| 20260905132513 | 77 | 69 | 0.0 | 1.7 | 0.00 | 0.00 | 0.00 | 82 | 1016.4 |
| 20260905132012 | 77 | 69 | 0.0 | 1.7 | 0.00 | 0.00 | 0.00 | 84 | 1016.4 |
| 20260905131534 | 76 | 69 | 0.0 | 1.7 | 0.00 | 0.00 | 0.00 | 84 | 1016.6 |
| 20260905131010 | 76 | 69 | 0.0 | 1.7 | 0.00 | 0.00 | 0.00 | 84 | 1016.6 |
| 20260905130513 | 75 | 69 | 0.0 | 1.7 | 0.00 | 0.00 | 0.00 | 85 | 1016.6 |
| 20260905130023 | 75 | 69 | 0.0 | 0.9 | 0.00 | 0.00 | 0.00 | 86 | 1016.6 |
| 20260905125512 | 74 | 59 | 0.9 | 1.7 | 0.00 | 0.00 | 0.00 | 87 | 1016.6 |
| 20260905125009 | 74 | 53 | 0.9 | 1.7 | 0.00 | 0.00 | 0.00 | 87 | 1016.6 |
| 20260905124516 | 74 | 53 | 0.0 | 0.9 | 0.00 | 0.00 | 0.00 | 87 | 1016.6 |
| 20260905124015 | 74 | 53 | 0.0 | 1.7 | 0.00 | 0.00 | 0.00 | 88 | 1016.6 |
| 20260905123513 | 73 | 53 | 0.9 | 2.6 | 0.00 | 0.00 | 0.00 | 89 | 1016.6 |
| 20260905123033 | 72 | 184 | 0.0 | 2.6 | 0.00 | 0.00 | 0.00 | 90 | 1016.5 |
| 20260905122513 | 72 | 149 | 0.0 | 1.7 | 0.00 | 0.00 | 0.00 | 91 | 1016.5 |
| 20260905122013 | 71 | 99 | 0.0 | 1.7 | 0.00 | 0.00 | 0.00 | 93 | 1016.5 |
| 20260905121523 | 71 | 71 | 0.0 | 1.7 | 0.00 | 0.00 | 0.00 | 93 | 1016.5 |
| 20260905121014 | 70 | 71 | 0.9 | 1.7 | 0.00 | 0.00 | 0.00 | 94 | 1016.6 |
| 20260905120515 | 70 | 71 | 0.0 | 1.7 | 0.00 | 0.00 | 0.00 | 94 | 1016.4 |
| 20260905120026 | 69 | 71 | 0.0 | 1.7 | 0.00 | 0.00 | 0.00 | 94 | 1016.3 |
| 20260905115511 | 69 | 71 | 0.0 | 0.0 | 0.00 | 0.00 | 0.00 | 95 | 1016.2 |
| 20260905115012 | 69 | 71 | 0.0 | 0.9 | 0.00 | 0.00 | 0.00 | 95 | 1016.2 |
| 20260905114519 | 69 | 71 | 0.0 | 0.9 | 0.00 | 0.00 | 0.00 | 95 | 1016.1 |
| 20260905114010 | 69 | 71 | 0.0 | 0.9 | 0.00 | 0.00 | 0.00 | 95 | 1016.0 |
| 20260905113511 | 68 | 71 | 0.0 | 0.0 | 0.00 | 0.00 | 0.00 | 95 | 1016.1 |
| 20260905113024 | 68 | 71 | 0.0 | 0.0 | 0.00 | 0.00 | 0.00 | 95 | 1016.0 |
| 20260905112513 | 68 | 71 | 0.0 | 0.0 | 0.00 | 0.00 | 0.00 | 95 | 1015.9 |
| 20260905112016 | 68 | 71 | 0.0 | 0.0 | 0.00 | 0.00 | 0.00 | 95 | 1015.9 |
| 20260905111523 | 68 | 71 | 0.0 | 0.0 | 0.00 | 0.00 | 0.00 | 95 | 1015.9 |
| 20260905111013 | 68 | 71 | 0.0 | 0.0 | 0.00 | 0.00 | 0.00 | 95 | 1015.8 |
| 20260905110513 | 68 | 71 | 0.0 | 1.7 | 0.00 | 0.00 | 0.00 | 95 | 1015.7 |
| 20260905110025 | 68 | 71 | 0.0 | 1.7 | 0.00 | 0.00 | 0.00 | 95 | 1015.6 |
| 20260905105514 | 68 | 71 | 0.0 | 1.7 | 0.00 | 0.00 | 0.00 | 95 | 1015.6 |
| 20260905105012 | 68 | 71 | 0.0 | 0.0 | 0.00 | 0.00 | 0.00 | 95 | 1015.6 |
| 20260905104526 | 68 | 71 | 0.0 | 0.0 | 0.00 | 0.00 | 0.00 | 94 | 1015.6 |
| 20260905104012 | 69 | 71 | 0.0 | 0.0 | 0.00 | 0.00 | 0.00 | 94 | 1015.6 |
| 20260905103510 | 69 | 71 | 0.0 | 0.0 | 0.00 | 0.00 | 0.00 | 94 | 1015.5 |
| 20260905103025 | 69 | 71 | 0.0 | 1.7 | 0.00 | 0.00 | 0.00 | 95 | 1015.5 |
| 20260905102516 | 69 | 71 | 0.0 | 1.7 | 0.00 | 0.00 | 0.00 | 95 | 1015.4 |
| 20260905102013 | 69 | 71 | 0.0 | 0.9 | 0.00 | 0.00 | 0.00 | 95 | 1015.4 |
| 20260905101526 | 69 | 71 | 0.0 | 0.0 | 0.00 | 0.00 | 0.00 | 94 | 1015.5 |
| 20260905101015 | 69 | 71 | 0.0 | 0.0 | 0.00 | 0.00 | 0.00 | 94 | 1015.4 |
| 20260905100513 | 69 | 71 | 0.0 | 0.0 | 0.00 | 0.00 | 0.00 | 95 | 1015.3 |
| 20260905100029 | 69 | 71 | 0.0 | 0.0 | 0.00 | 0.00 | 0.00 | 94 | 1015.3 |
| 20260905095515 | 69 | 71 | 0.0 | 0.0 | 0.00 | 0.00 | 0.00 | 95 | 1015.3 |
| 20260905095015 | 69 | 71 | 0.0 | 0.0 | 0.00 | 0.00 | 0.00 | 94 | 1015.2 |
| 20260905094552 | 69 | 71 | 0.0 | 0.0 | 0.00 | 0.00 | 0.00 | 94 | 1015.2 |
| 20260905094015 | 69 | 71 | 0.0 | 0.0 | 0.00 | 0.00 | 0.00 | 94 | 1015.1 |
| 20260905093516 | 69 | 71 | 0.0 | 0.0 | 0.00 | 0.00 | 0.00 | 94 | 1015.1 |
| 20260905093028 | 69 | 71 | 0.0 | 0.0 | 0.00 | 0.00 | 0.00 | 94 | 1015.1 |
| 20260905092516 | 69 | 71 | 0.0 | 0.0 | 0.00 | 0.00 | 0.00 | 94 | 1015.0 |
| 20260905092016 | 69 | 71 | 0.0 | 0.0 | 0.00 | 0.00 | 0.00 | 94 | 1015.0 |
| 20260905091525 | 69 | 71 | 0.0 | 0.0 | 0.00 | 0.00 | 0.00 | 94 | 1014.9 |
| 20260905091015 | 69 | 71 | 0.0 | 0.0 | 0.00 | 0.00 | 0.00 | 94 | 1015.0 |
| 20260905090515 | 69 | 71 | 0.0 | 0.0 | 0.00 | 0.00 | 0.00 | 94 | 1015.0 |
| 20260905090009 | 69 | 71 | 0.0 | 0.0 | 0.00 | 0.00 | 0.00 | 94 | 1015.0 |
| 20260905085504 | 69 | 71 | 0.0 | 0.0 | 0.00 | 0.00 | 0.00 | 94 | 1015.0 |
| 20260905085004 | 69 | 71 | 0.0 | 0.0 | 0.00 | 0.00 | 0.00 | 94 | 1015.1 |
| 20260905084508 | 69 | 71 | 0.0 | 0.0 | 0.00 | 0.00 | 0.00 | 94 | 1015.1 |
| 20260905084008 | 69 | 71 | 0.0 | 0.0 | 0.00 | 0.00 | 0.00 | 94 | 1015.1 |
| 20260905083508 | 69 | 71 | 0.0 | 0.0 | 0.00 | 0.00 | 0.00 | 94 | 1015.2 |
| 20260905083016 | 69 | 71 | 0.0 | 1.7 | 0.00 | 0.00 | 0.00 | 94 | 1015.3 |
| 20260905082509 | 69 | 71 | 0.0 | 1.7 | 0.00 | 0.00 | 0.00 | 94 | 1015.1 |
| 20260905082011 | 69 | 71 | 0.0 | 1.7 | 0.00 | 0.00 | 0.00 | 94 | 1015.1 |
| 20260905081523 | 69 | 71 | 0.0 | 1.7 | 0.00 | 0.00 | 0.00 | 93 | 1015.2 |
| 20260905081016 | 70 | 71 | 0.0 | 0.0 | 0.00 | 0.00 | 0.00 | 93 | 1015.2 |
| 20260905080518 | 70 | 71 | 0.0 | 0.0 | 0.00 | 0.00 | 0.00 | 93 | 1015.2 |
| 20260905080006 | 70 | 71 | 0.0 | 0.0 | 0.00 | 0.00 | 0.00 | 93 | 1015.3 |
| 20260905075504 | 70 | 71 | 0.0 | 0.0 | 0.00 | 0.00 | 0.00 | 93 | 1015.4 |
| 20260905075004 | 70 | 71 | 0.0 | 0.0 | 0.00 | 0.00 | 0.00 | 93 | 1015.5 |
| 20260905074510 | 70 | 71 | 0.0 | 0.0 | 0.00 | 0.00 | 0.00 | 93 | 1015.5 |
| 20260905074008 | 70 | 71 | 0.0 | 0.0 | 0.00 | 0.00 | 0.00 | 93 | 1015.5 |
| 20260905073511 | 70 | 71 | 0.0 | 0.0 | 0.00 | 0.00 | 0.00 | 93 | 1015.5 |
| 20260905073013 | 70 | 71 | 0.0 | 1.7 | 0.00 | 0.00 | 0.00 | 93 | 1015.6 |